Location: Asheville, NC
(35.6000°N, 82.5500°W)
Time: 12:02:05

AO-73 - Pass Details

Date: 15 March 2018
Orbit: 582 x 666 km, 97.6° (Epoch: 24 March)

Event Time Altitude Azimuth Distance (km) Brightness Sun altitude
Rises 21:13:32 0° 182° (S) 2,877 ? -20.1°
Reaches altitude 10° 21:15:49 10° 189° (S) 1,962 ? -20.6°
Maximum altitude 21:19:52 42° 261° (W) 858 ? -21.4°
Drops below altitude 10° 21:23:51 10° 333° (NNW) 1,932 ? -22.2°
Sets 21:26:06 0° 340° (NNW) 2,828 ? -22.6°
